Theta_e
314 315 314 316 318 319 320 323 321 321 321 314 315 318 319 322 323 324 326 327 329 329 325 327 332 330 330 329 331 330 329 333 331 329 331 336 336 336 336 334 333 332 334 335 335 337 337 337 336 335 332 331 331 334 335 331 328 331 333 333 333 332 331 330 332 332 332 332 332 332 333 333 331 331 332 332 333 334 334 333 333 333 334 334 334 334 334 333 332 332 331 332 330 330 328 327 326
315 315 315 316 318 319 320 323 320 318 317 313 315 318 318 322 323 325 327 327 328 326 324 329 330 328 328 328 329 329 333 332 330 333 335 335 335 336 336 334 333 333 335 334 335 337 337 336 336 335 330 328 331 334 335 332 330 332 333 333 333 332 331 331 332 332 332 332 332 332 333 333 332 332 332 333 334 333 333 333 333 334 334 334 334 334 334 332 332 331 331 331 330 328 326 326 325
317 317 316 318 321 320 320 321 318 314 313 312 315 319 319 322 324 326 326 325 326 325 326 330 328 327 327 328 329 329 334 331 330 335 335 336 336 336 335 335 334 334 335 335 334 336 338 336 335 335 330 328 331 332 331 328 329 332 332 331 331 331 332 333 333 332 332 332 333 333 333 333 333 333 332 334 333 333 333 333 334 334 334 333 334 334 334 332 331 331 330 330 328 327 326 325 324
317 319 317 320 322 321 320 321 320 315 312 312 313 318 320 322 326 324 324 325 325 326 328 330 329 328 327 329 329 328 333 333 334 336 335 337 336 335 335 334 335 334 334 334 334 335 338 336 335 335 330 329 329 329 329 327 330 332 332 330 331 332 332 332 332 332 332 331 332 332 333 333 333 333 333 333 332 333 334 334 334 334 334 334 333 333 333 333 332 331 330 329 327 326 325 324 324
316 319 317 321 323 321 322 321 321 316 314 314 314 318 319 321 325 324 325 326 324 324 328 330 331 329 328 330 329 328 333 333 335 336 336 337 336 335 334 334 334 333 333 334 335 335 336 336 335 335 332 331 329 329 329 327 329 329 330 331 331 332 332 331 332 332 332 330 330 331 332 333 332 332 332 333 333 333 334 333 333 334 334 334 333 331 331 332 332 331 330 329 325 323 323 322 321
316 319 318 321 321 320 320 318 317 316 317 319 317 318 318 319 324 325 326 326 323 322 324 328 330 329 331 331 330 330 334 334 335 336 336 337 336 334 333 334 333 333 333 334 334 335 336 336 335 335 334 333 331 331 330 326 325 323 324 329 332 332 331 332 332 333 333 331 330 330 331 332 332 331 332 333 333 333 333 333 334 334 334 333 332 330 330 331 332 331 329 325 323 321 320 318 315
316 319 321 322 321 320 319 315 316 317 319 319 319 318 317 319 323 325 326 325 324 321 320 325 328 328 331 331 331 333 333 334 335 337 336 337 335 334 333 333 333 332 333 334 334 335 336 335 335 335 334 335 333 332 329 324 325 323 321 327 332 332 331 332 333 333 333 332 330 328 329 331 332 331 332 333 333 333 333 332 333 333 333 332 332 331 332 331 330 329 326 323 322 321 319 317 315
317 319 322 323 323 321 318 315 318 319 318 317 317 317 317 319 322 326 327 325 324 323 321 325 327 326 330 329 333 334 332 334 334 337 337 336 335 333 334 333 333 332 333 334 334 334 334 334 334 336 335 335 333 331 329 326 327 325 320 325 331 332 331 331 332 333 333 332 329 327 327 328 331 331 331 332 332 332 331 331 332 332 331 331 331 330 331 330 329 328 325 323 322 321 320 320 319
318 319 321 323 323 320 317 316 318 319 318 317 317 317 316 317 322 326 326 324 322 323 325 326 325 324 329 329 333 334 333 334 334 337 336 336 334 333 333 333 332 332 333 333 333 333 333 334 334 335 335 335 334 334 332 329 329 327 321 322 326 328 329 329 331 332 333 333 330 328 327 326 330 331 331 332 332 331 330 331 331 331 331 331 330 329 331 330 329 328 325 323 322 322 322 321 321
319 320 321 323 321 317 314 315 318 318 318 317 317 316 315 316 321 326 325 324 322 324 326 325 323 323 327 329 332 333 334 334 334 336 336 335 334 333 333 333 332 331 332 332 333 333 333 333 333 334 334 335 335 336 334 331 332 330 325 322 322 323 325 328 330 331 332 332 330 328 328 328 330 330 330 331 331 331 330 331 331 330 330 330 330 330 330 330 329 328 325 323 323 322 322 322 321
320 319 321 322 319 315 312 313 317 318 318 316 316 315 314 316 321 324 324 323 322 325 326 323 324 324 327 329 331 332 333 334 336 336 335 335 334 333 333 333 332 330 331 332 332 332 333 332 332 333 334 335 335 336 334 332 334 332 329 325 323 321 322 326 329 330 331 332 330 328 329 330 330 329 329 329 330 331 331 331 330 330 330 329 329 329 330 329 329 327 325 323 323 323 323 322 321
321 320 321 322 319 318 316 316 317 319 320 317 318 317 314 317 322 324 323 323 322 325 326 324 325 325 327 328 329 332 333 336 336 336 336 335 334 333 332 333 332 331 331 332 332 332 332 332 332 333 333 334 334 335 334 333 334 333 331 328 327 323 321 325 327 329 330 331 330 328 328 330 329 329 329 328 329 330 331 330 329 330 329 328 328 328 329 329 328 326 324 323 323 322 322 322 321
321 321 321 321 320 320 319 318 318 319 320 317 319 317 315 318 323 323 323 323 322 325 325 324 325 325 326 327 329 332 334 336 336 336 336 335 334 332 332 332 331 331 330 331 332 332 332 332 332 332 332 333 333 334 334 334 334 334 333 331 330 326 322 324 325 327 329 330 329 328 328 329 329 329 329 329 328 329 330 330 329 329 328 328 327 328 328 328 327 325 324 323 323 323 322 322 321
321 321 321 320 320 320 319 319 319 318 317 317 317 316 317 319 321 322 322 323 323 323 322 323 325 324 325 325 328 332 334 336 336 336 336 335 334 332 332 332 331 330 329 330 331 331 331 332 332 331 331 333 333 333 333 334 334 333 333 332 332 328 324 322 323 325 329 330 328 328 327 327 328 328 329 328 327 327 328 329 329 328 328 327 327 327 327 326 326 325 325 324 323 323 323 322 322
320 320 321 321 319 319 319 319 318 317 316 317 316 315 318 317 316 320 321 323 322 319 319 323 324 322 324 323 325 331 336 336 336 336 336 336 334 332 332 332 331 330 329 330 331 330 331 331 331 330 330 332 332 333 332 333 334 333 333 332 332 331 325 320 321 323 327 330 328 328 326 326 328 327 327 327 327 327 327 328 328 327 327 327 327 327 326 325 325 325 324 324 323 323 323 322 322
319 319 321 321 319 319 319 319 318 317 315 315 313 313 319 317 314 317 317 318 319 317 320 325 323 324 324 323 326 331 337 335 336 336 336 335 334 332 332 332 331 330 329 330 330 330 330 330 330 330 329 330 331 332 332 333 333 333 333 332 332 332 324 318 320 321 324 328 328 328 326 326 327 325 325 326 326 326 327 327 327 327 326 326 326 326 325 325 325 325 324 324 323 323 323 323 322
318 321 324 322 320 319 319 320 318 316 316 314 312 314 321 319 313 314 314 316 320 319 320 324 324 325 326 326 327 331 337 335 336 336 336 335 333 332 332 332 331 330 330 329 330 330 329 330 330 330 329 329 329 331 332 332 333 332 332 332 332 329 320 315 319 322 322 326 329 328 326 326 326 325 325 325 325 325 325 326 325 325 326 326 326 325 324 325 324 324 324 323 323 323 323 323 322
320 324 326 324 322 320 319 319 317 315 316 314 312 314 320 321 316 314 316 318 321 321 321 324 325 326 328 329 328 332 336 335 336 336 335 335 333 333 332 332 331 331 330 329 329 330 329 329 329 330 329 328 327 329 331 332 332 331 331 331 331 327 318 314 319 323 323 325 328 327 327 327 327 326 325 324 324 324 324 325 324 324 325 325 324 324 323 324 324 324 324 323 323 323 323 323 323
320 324 327 326 323 319 318 317 315 315 315 314 312 312 316 319 318 316 318 319 320 321 322 324 325 327 329 329 330 333 335 335 336 335 336 336 334 333 332 332 332 331 330 329 329 329 329 329 329 329 329 328 327 328 330 331 332 330 330 329 328 326 320 316 319 322 324 326 326 326 327 327 327 326 324 322 321 322 323 324 324 324 325 324 323 322 323 324 324 324 324 323 323 323 323 323 324
316 320 327 326 322 318 316 316 315 314 313 313 313 311 313 316 316 316 318 320 319 321 321 324 325 326 329 330 332 334 335 335 335 335 336 336 335 334 333 332 331 332 331 330 330 329 329 329 329 329 329 328 328 328 329 331 330 328 328 327 327 327 323 319 318 319 322 326 325 326 326 326 326 325 323 321 319 321 323 323 323 323 323 323 323 323 323 324 324 324 324 324 323 323 323 323 324
314 317 323 322 321 319 315 313 313 311 310 312 312 311 313 314 314 316 318 320 320 321 320 322 322 325 330 330 332 334 334 335 335 335 336 336 336 334 334 333 332 332 331 330 330 329 329 329 329 328 328 328 328 328 329 330 328 328 327 327 327 327 326 323 319 318 319 322 325 326 324 323 324 324 323 323 321 322 323 322 321 321 322 322 323 323 324 324 324 324 324 324 324 323 323 323 324
315 317 319 319 320 319 315 311 310 310 309 311 312 312 313 312 312 315 317 320 320 320 319 321 321 325 330 330 332 334 334 335 335 335 336 336 336 335 334 333 332 332 331 331 330 330 329 329 329 328 328 328 328 328 328 328 328 328 326 326 327 327 326 325 321 320 318 318 321 322 320 320 322 322 322 323 322 322 322 321 318 318 320 321 322 323 323 323 324 324 324 325 324 324 324 323 323
319 318 316 317 318 318 314 310 309 309 310 311 312 311 312 312 314 314 315 319 317 314 315 316 318 325 331 332 332 333 333 335 335 335 335 335 336 335 334 333 333 332 332 331 331 331 330 329 329 328 328 328 328 328 327 327 327 327 325 324 327 327 326 325 322 321 319 317 317 316 315 318 321 321 321 321 321 321 321 319 316 315 317 319 321 322 322 323 323 324 324 324 323 323 322 322 321
323 323 318 318 316 316 314 311 309 308 310 311 310 310 311 313 314 312 313 318 314 313 314 313 317 328 332 331 332 333 334 334 335 335 335 335 335 335 334 334 333 333 332 332 331 331 331 330 329 328 328 327 327 327 327 327 327 327 325 324 324 325 324 324 323 320 319 319 317 315 314 315 318 319 319 320 320 320 320 318 317 316 315 316 318 319 321 321 322 323 323 323 323 322 321 321 321
320 324 320 317 315 315 314 311 310 309 310 309 308 311 312 312 311 310 313 315 313 317 321 318 321 329 330 330 331 334 335 334 335 334 335 335 335 335 334 334 333 333 334 333 332 331 331 330 329 328 328 327 327 327 327 327 326 326 326 324 321 321 321 321 321 319 318 319 318 317 316 314 314 315 316 318 318 317 317 317 317 317 316 316 316 316 317 318 319 320 320 321 322 322 322 322 322
317 318 317 316 315 314 312 312 311 310 310 309 310 313 312 310 309 311 313 314 314 319 324 324 325 327 329 330 331 334 335 334 335 334 334 334 334 335 334 334 334 334 334 333 333 332 332 331 330 329 328 327 327 327 327 327 326 326 326 325 321 319 319 320 321 320 319 318 318 318 317 315 314 313 313 314 315 314 314 315 315 316 316 316 316 316 316 316 317 318 319 320 322 322 323 321 320
314 315 315 314 315 313 312 312 311 310 311 310 312 314 312 309 309 314 314 312 313 317 323 326 326 327 329 330 330 334 334 334 335 334 334 333 334 334 333 334 334 334 334 334 333 333 332 331 331 329 328 328 327 328 327 327 326 326 326 325 323 321 319 321 321 320 319 318 318 318 319 318 316 315 314 313 314 315 315 314 315 315 315 315 315 315 316 316 317 318 319 321 322 322 322 320 320
313 315 316 314 313 314 312 313 312 312 313 310 311 312 311 309 310 315 314 310 312 315 323 326 326 326 329 330 330 332 334 334 334 334 334 333 333 333 333 333 333 334 334 334 334 333 333 332 331 330 329 328 328 328 327 327 327 326 326 325 325 323 320 321 321 320 320 319 319 318 319 319 319 318 317 317 317 319 318 318 317 317 317 316 314 314 316 317 317 318 318 319 320 320 322 321 320
312 312 317 316 313 315 314 314 314 314 314 310 310 315 313 312 312 314 314 311 312 314 320 324 325 327 329 330 330 331 333 334 334 334 334 333 334 334 333 333 333 333 333 334 334 334 333 332 332 331 330 329 328 328 328 327 327 326 326 326 325 324 322 322 321 320 320 320 320 319 319 319 320 320 320 320 320 321 322 322 321 320 320 318 317 316 317 318 319 319 319 319 319 320 322 322 321
314 312 316 319 318 320 317 314 313 314 314 309 312 320 320 315 314 314 313 312 313 314 316 321 324 326 327 329 330 330 332 333 333 333 333 333 334 334 333 333 333 333 333 332 333 333 333 332 332 331 331 330 329 328 328 328 327 327 327 326 326 324 323 323 321 321 321 320 321 320 320 320 320 320 321 322 322 323 324 325 324 323 321 320 320 319 319 320 321 322 322 321 322 322 323 323 322
316 315 316 319 323 324 316 312 312 314 312 309 313 320 322 319 315 314 313 314 314 314 315 317 322 325 325 328 329 329 331 332 332 332 333 333 333 333 333 333 333 333 333 332 333 332 332 332 332 331 331 331 330 329 329 328 328 327 327 327 327 326 325 324 324 323 322 322 322 321 321 321 321 321 321 322 322 324 325 325 325 325 324 321 321 322 321 322 323 323 323 323 323 323 323 323 323
315 320 321 318 322 325 317 311 312 315 311 308 314 319 321 320 317 313 311 313 314 313 314 315 319 323 324 326 327 328 330 331 332 332 332 332 332 333 332 333 332 332 332 332 332 332 332 332 331 331 331 331 331 331 329 329 329 328 328 327 327 327 326 326 325 326 325 324 324 323 323 323 323 323 322 322 322 324 326 326 326 326 325 323 322 323 323 324 324 324 324 324 324 324 324 323 323
315 320 323 319 321 324 320 313 311 313 312 309 314 319 320 318 315 311 307 310 313 313 314 314 316 320 322 325 326 327 329 330 331 331 332 331 332 332 332 332 332 332 332 332 333 332 332 332 331 331 330 330 331 331 331 330 330 329 329 328 327 327 327 326 326 327 327 327 326 325 325 325 326 326 325 324 323 323 325 326 326 326 325 324 324 324 324 325 325 325 325 324 324 324 324 324 324
316 318 321 321 319 319 320 317 311 310 312 312 312 315 318 318 316 312 307 308 311 312 314 314 314 316 319 322 324 325 327 328 329 331 331 331 331 332 332 332 332 332 332 332 332 332 331 331 331 330 329 330 330 331 331 330 330 330 329 329 328 327 327 327 326 327 327 328 329 328 328 328 328 328 327 327 325 324 324 325 325 325 325 325 325 325 325 325 325 325 325 324 323 323 323 323 323
319 320 323 321 318 316 319 320 313 310 312 313 313 313 314 316 316 314 312 309 310 311 313 313 313 313 315 319 321 323 325 326 328 330 330 330 331 331 331 332 332 332 332 332 332 331 331 331 331 330 329 329 330 331 331 330 330 330 330 329 329 328 327 327 327 327 327 328 330 330 330 330 330 330 329 329 328 327 326 325 325 325 325 325 325 325 325 325 325 325 324 324 323 323 322 323 323
322 322 324 324 321 319 318 317 312 310 312 313 314 314 314 315 314 315 315 312 311 312 312 312 313 313 313 315 317 320 323 324 326 328 329 329 330 331 331 331 331 332 332 331 331 331 331 331 330 330 330 329 329 330 330 330 330 330 330 330 330 329 328 328 328 328 328 329 330 330 331 332 332 331 331 330 330 330 328 326 325 325 326 326 325 325 325 325 325 325 324 324 324 323 323 322 322
323 322 323 323 323 323 319 314 310 309 313 315 315 314 314 315 314 315 315 313 311 312 312 312 312 313 313 314 314 316 319 321 323 324 325 328 329 329 330 330 331 331 331 331 331 331 331 331 331 330 330 329 330 330 330 330 330 330 330 330 330 330 330 329 328 329 330 331 331 331 331 332 331 332 332 331 331 331 330 328 326 326 326 326 326 325 325 324 324 324 324 323 324 323 323 322 321
320 320 321 321 320 321 318 313 310 308 312 316 315 313 314 314 314 314 314 313 312 312 312 313 313 313 313 313 314 314 315 316 317 318 321 324 326 328 329 329 330 330 330 330 330 331 331 331 331 331 330 330 330 330 331 331 330 331 331 331 331 331 331 330 329 329 329 330 331 332 332 332 332 332 332 332 332 331 331 330 328 327 327 327 326 326 325 325 324 324 323 323 323 324 323 323 322
318 318 320 321 319 318 317 313 310 309 311 316 315 312 314 315 314 313 313 313 313 313 312 313 313 313 313 312 312 313 313 314 313 313 316 320 323 326 327 328 329 330 330 330 330 331 331 331 331 331 331 331 330 330 331 331 331 331 332 332 332 332 331 331 330 330 329 329 330 331 332 333 333 332 332 333 332 331 331 330 330 329 328 327 327 326 326 325 325 325 324 323 323 323 323 323 322
318 319 320 322 319 319 322 315 310 309 310 313 313 312 314 315 315 314 313 312 312 313 312 312 312 313 313 313 313 313 312 314 313 312 312 315 320 324 326 327 328 329 330 330 330 331 331 331 331 331 331 331 331 330 331 331 331 332 332 332 332 332 331 331 330 330 329 329 329 329 329 330 331 331 332 333 332 332 331 331 330 329 328 328 327 326 326 326 325 325 324 323 322 323 323 322 322
319 318 320 322 318 318 321 315 311 311 311 310 311 314 316 316 317 317 316 314 311 312 312 311 312 312 312 313 314 313 313 314 314 313 312 313 315 319 323 326 327 328 329 330 330 330 330 330 330 331 331 331 331 331 330 330 331 332 332 332 332 332 332 331 331 330 330 329 329 328 327 327 328 329 330 331 332 333 332 331 331 330 329 328 327 326 326 326 325 325 325 324 323 323 323 322 322
319 318 318 320 319 317 316 313 314 319 318 312 311 320 322 317 317 318 318 316 312 312 312 311 312 312 311 311 312 313 313 313 313 313 314 314 313 315 319 323 325 327 327 328 329 329 329 329 330 330 331 331 331 331 330 330 331 332 331 332 332 332 332 331 331 330 330 329 329 329 328 328 328 328 328 328 330 331 332 332 331 330 329 328 327 327 327 326 326 325 324 324 324 323 323 322 322
322 318 315 317 318 318 315 314 318 323 322 313 310 319 322 316 315 316 315 315 313 313 312 312 312 312 311 310 310 312 312 313 314 313 312 313 313 313 315 318 320 322 322 325 327 327 328 329 329 330 330 330 330 330 330 329 331 331 330 331 331 331 331 331 331 330 330 330 329 329 329 329 328 328 328 328 327 328 330 331 331 330 328 328 327 326 327 326 326 325 323 323 324 324 323 322 322
322 318 314 314 316 317 316 315 318 319 316 313 311 313 315 314 315 315 314 314 313 313 313 312 312 312 311 310 310 311 312 313 314 314 312 312 313 312 312 313 314 315 318 322 324 325 326 328 329 329 329 329 329 330 330 329 330 330 330 330 330 330 330 330 330 330 330 330 329 329 329 329 329 328 328 328 327 327 328 330 330 330 329 328 327 326 325 326 326 326 323 322 323 324 324 323 323
317 313 313 313 314 315 314 314 315 314 314 317 315 312 316 318 315 313 314 313 314 314 314 314 313 312 312 311 310 311 312 313 313 313 314 313 313 312 311 311 311 311 314 318 320 321 324 326 328 329 329 329 328 328 329 329 329 329 330 330 330 330 329 330 330 330 330 329 329 329 329 330 329 328 328 328 327 327 327 329 330 330 329 329 329 327 326 326 327 326 325 324 323 323 323 323 323
311 310 312 313 313 314 313 314 315 314 316 320 318 314 319 322 316 314 313 312 314 316 315 315 315 314 314 312 312 311 311 313 314 313 313 313 313 312 311 310 309 309 310 312 314 318 321 324 326 327 327 328 328 328 328 329 329 329 329 330 330 329 329 329 329 330 329 329 329 329 329 330 329 328 328 328 328 327 326 327 328 329 329 329 329 328 328 327 327 327 326 325 324 323 323 323 324
309 310 312 312 313 312 313 313 313 317 321 322 318 314 316 322 319 316 315 314 314 316 316 315 315 315 315 314 314 313 311 312 315 314 312 311 311 310 309 308 308 308 308 308 310 314 317 320 323 325 326 327 327 327 327 328 328 328 328 329 330 329 329 329 329 329 329 329 329 329 329 329 329 328 328 328 328 328 327 326 326 328 329 329 329 328 329 328 327 327 326 325 326 325 324 324 324
312 312 313 314 313 312 313 313 313 322 326 319 313 313 315 321 320 315 316 315 312 314 315 315 315 314 315 315 313 312 311 311 312 313 311 310 309 308 307 306 307 307 306 306 307 310 314 317 321 324 325 326 327 327 327 328 328 328 328 329 329 329 329 329 328 328 329 328 328 329 329 329 329 329 328 329 329 328 328 328 327 327 327 327 328 327 328 327 327 328 326 325 326 326 325 324 324
313 313 316 318 317 317 319 316 314 321 322 311 308 311 313 318 318 314 314 314 313 313 313 314 315 314 314 315 315 315 314 312 310 310 311 311 309 309 308 307 307 307 306 305 305 307 311 315 319 323 325 326 327 327 327 327 327 327 327 328 328 329 329 329 328 328 328 328 328 329 329 329 329 329 329 329 329 328 328 329 328 327 326 325 326 326 327 327 327 327 327 326 326 326 325 324 324
312 313 319 321 318 321 325 320 316 320 316 307 306 310 314 316 316 314 313 314 314 312 311 312 313 313 313 314 314 314 313 311 309 309 311 313 313 312 311 309 308 307 306 305 305 306 308 312 317 321 323 324 326 326 326 326 327 327 327 327 328 328 328 329 329 328 328 328 328 328 329 329 329 329 329 329 329 328 328 328 328 328 328 327 326 325 326 326 326 326 326 327 327 326 324 324 324
313 315 320 321 319 322 327 323 320 321 314 307 307 312 317 317 315 312 311 312 312 310 309 310 310 310 310 311 310 309 309 309 311 311 311 312 312 312 311 310 308 307 306 305 304 305 307 310 314 318 321 323 325 325 325 326 326 327 327 327 327 328 328 328 328 328 328 328 328 328 328 329 329 329 329 329 329 329 329 328 327 327 327 327 326 326 325 324 325 325 326 327 327 326 324 324 323
314 316 318 321 318 317 317 316 315 315 313 310 309 313 316 314 312 311 311 312 311 310 309 309 310 309 309 310 309 309 309 309 311 312 311 310 310 310 310 310 308 306 305 304 303 304 305 308 311 316 319 322 323 324 324 325 326 326 326 326 327 327 327 327 328 328 328 328 328 328 328 328 328 329 329 329 328 329 329 329 328 327 326 325 326 326 325 323 324 325 326 326 325 325 325 323 321
314 316 317 317 315 312 312 311 308 309 316 316 312 312 313 313 314 313 313 314 312 311 310 308 309 310 310 311 312 313 313 313 313 312 311 311 311 311 310 309 308 307 306 304 303 303 304 306 309 314 318 320 322 323 323 325 325 325 326 326 326 326 327 327 327 327 327 328 328 328 328 328 328 329 329 329 329 329 329 329 328 328 327 325 325 326 326 324 324 325 325 325 324 323 324 322 320
314 316 316 314 314 313 313 313 310 310 317 317 312 313 314 314 317 314 312 314 313 314 312 310 310 310 310 313 315 315 315 315 313 310 309 309 310 312 311 308 307 308 308 306 305 303 303 304 306 311 315 318 320 322 322 323 324 325 325 325 325 326 326 326 326 327 327 327 327 327 328 328 328 328 329 329 329 329 329 329 328 327 327 325 324 325 325 323 323 325 325 325 324 322 322 321 320
314 316 315 315 317 317 314 312 313 313 315 315 312 311 311 313 316 314 311 312 312 312 313 313 312 310 311 314 315 315 315 315 312 309 308 308 309 312 311 308 307 307 308 308 307 306 304 304 304 308 312 315 317 319 321 322 323 324 324 325 325 325 325 325 326 326 326 326 327 327 327 327 327 328 329 329 329 329 329 329 328 327 326 325 324 324 324 323 323 324 324 324 323 321 321 320 319
312 314 315 314 316 318 316 312 313 315 316 316 315 312 312 314 314 313 313 312 311 312 312 313 314 313 313 313 314 316 317 315 312 309 308 308 309 310 308 307 307 307 308 308 308 308 307 306 305 306 309 312 315 318 319 321 322 323 323 324 325 325 325 325 325 326 326 326 326 326 326 327 327 328 329 329 329 329 329 328 327 326 326 325 325 324 323 323 323 323 322 323 321 319 319 319 317
310 313 315 314 312 313 316 313 312 314 316 316 317 317 315 313 311 312 314 313 313 314 314 314 315 314 314 314 315 316 315 312 309 307 307 307 309 309 307 306 306 306 307 307 308 308 308 308 307 307 308 310 313 315 317 319 320 321 322 323 324 324 324 325 325 325 326 326 326 326 327 327 328 328 329 329 329 329 328 327 327 326 325 325 325 324 323 322 322 322 320 319 318 318 318 318 316
311 313 314 315 313 312 317 318 313 311 313 313 314 317 317 314 311 310 312 313 313 314 314 315 315 314 314 315 315 313 312 310 307 306 306 306 308 310 308 307 306 307 307 307 308 308 309 309 309 309 309 309 311 313 315 317 318 320 321 322 323 323 323 324 325 325 325 325 326 326 327 327 328 328 328 329 329 328 327 327 326 325 324 324 324 324 323 322 322 321 318 316 317 318 317 316 314
Wind_Speed
8 6 7 5 8 6 1 2 1 1 1 1 2 1 3 1 2 3 6 6 4 5 2 2 8 6 2 2 2 4 5 1 2 2 1 4 10 16 11 12 16 15 14 13 14 13 12 12 13 16 15 14 15 16 14 14 14 15 14 13 13 13 13 12 12 12 12 12 13 13 14 14 15 15 15 15 15 16 17 17 18 18 19 18 18 18 18 19 19 20 21 21 22 22 21 20 19
8 7 6 5 6 5 1 1 2 1 1 2 2 0 3 3 3 5 8 6 2 5 4 5 8 3 2 2 1 3 3 5 5 3 3 7 15 14 10 14 16 15 14 14 15 12 11 12 14 15 15 15 15 16 14 13 15 15 13 13 12 12 12 13 13 13 12 13 13 14 14 14 15 15 15 15 15 17 17 17 17 17 18 18 18 18 18 18 19 19 20 20 21 20 20 19 19
8 8 5 4 3 2 1 1 2 1 1 2 3 2 3 4 5 5 6 4 5 7 6 6 7 2 1 2 2 1 2 4 3 4 5 12 15 12 13 15 15 14 14 14 15 13 11 12 15 15 15 16 15 16 14 14 17 16 13 12 10 10 12 13 13 12 13 13 14 14 14 14 14 15 15 15 16 16 16 16 16 17 17 17 18 18 17 18 19 19 19 20 19 19 19 19 19
8 9 4 3 0 1 1 1 0 1 0 1 2 4 4 4 4 5 5 5 6 7 7 7 6 1 3 1 1 1 3 4 4 5 8 12 11 14 17 15 15 14 14 14 14 13 11 13 16 16 16 16 15 16 14 15 17 16 14 12 10 10 12 13 13 13 12 12 13 12 13 14 15 15 15 15 16 16 15 16 16 17 17 17 17 17 17 17 18 18 19 19 19 19 19 19 18
7 8 5 2 2 1 0 0 0 2 1 1 1 4 4 4 5 6 6 6 6 3 5 7 4 2 2 1 2 1 4 4 5 6 9 12 11 17 18 15 15 13 14 14 14 13 12 14 16 16 16 15 15 15 15 16 16 15 15 14 12 10 11 11 12 13 12 12 13 12 12 13 14 15 15 15 15 15 15 16 16 16 16 16 16 16 16 16 17 17 18 18 18 19 19 18 17
6 6 6 3 1 0 1 2 1 0 2 1 2 4 2 4 6 8 8 7 4 1 2 5 2 2 2 2 2 2 3 3 6 8 10 13 14 17 17 16 14 13 15 14 14 13 13 15 16 16 16 14 14 14 14 15 15 14 15 16 13 10 10 9 9 12 13 12 13 13 13 13 14 14 15 14 14 14 15 15 16 15 15 16 16 16 16 16 16 16 17 18 18 18 18 18 17
8 3 3 4 2 1 2 2 1 2 2 1 2 4 3 6 7 10 11 7 3 0 1 3 1 3 2 2 1 3 2 1 5 8 11 14 16 17 16 15 13 14 15 14 14 12 14 16 15 16 15 14 14 14 14 14 14 13 14 17 14 10 11 10 8 11 13 12 12 12 11 12 13 14 14 13 14 14 14 15 15 15 15 15 16 16 16 16 16 16 17 18 18 18 18 18 18
9 2 1 1 1 0 1 2 0 1 2 1 2 2 3 5 7 10 12 7 4 4 4 3 3 4 2 1 2 4 2 1 5 8 12 15 17 17 15 14 14 15 14 14 14 12 15 16 15 16 15 14 13 13 13 13 13 12 14 16 16 12 10 11 9 9 12 12 11 10 8 10 12 13 13 13 13 13 13 14 14 14 14 14 14 15 15 15 15 16 17 17 17 17 17 17 17
6 3 1 2 1 1 1 1 1 0 1 2 3 1 1 4 7 9 11 5 2 5 5 5 4 3 4 4 1 4 3 4 7 10 14 16 17 16 14 13 13 15 15 14 14 13 14 15 15 16 16 14 14 13 12 12 11 12 14 14 15 12 11 11 9 8 10 11 10 9 8 10 11 11 12 12 12 12 13 13 13 13 13 14 14 14 14 14 15 15 16 16 16 16 16 16 16
3 2 1 1 1 2 2 2 1 1 1 2 3 3 2 5 8 8 10 6 3 6 4 4 3 2 4 5 2 3 4 6 9 14 16 17 17 16 13 12 13 16 15 15 14 13 13 15 15 15 16 14 14 13 12 12 10 11 13 13 11 11 13 13 10 9 9 10 10 10 11 12 10 10 11 11 12 12 12 12 12 12 13 13 13 13 13 13 13 14 14 15 14 15 15 15 15
1 2 1 2 2 2 2 2 2 1 1 1 3 4 3 7 9 7 7 5 3 4 5 4 3 4 4 2 1 3 4 7 12 16 17 17 17 15 13 11 13 15 15 16 15 14 13 15 15 14 15 14 14 13 13 11 10 10 11 12 9 9 14 14 12 10 9 10 10 11 12 11 10 10 11 10 11 12 11 11 11 12 12 12 12 12 12 12 12 13 13 14 14 14 14 15 16
1 1 2 3 2 1 1 1 0 1 1 2 2 3 3 8 10 9 9 6 5 5 6 7 3 4 5 1 2 4 6 10 14 17 18 18 17 15 13 12 13 13 14 15 14 14 13 14 14 14 15 14 13 13 13 11 10 10 10 10 9 8 12 13 12 11 10 10 9 10 12 11 11 11 11 11 11 11 10 10 10 10 10 11 11 11 11 11 11 12 12 13 13 13 14 15 16
0 1 3 2 0 0 1 1 1 2 2 1 2 3 3 9 10 10 10 7 7 6 6 6 3 2 3 2 3 5 8 12 16 18 18 18 17 15 13 12 12 12 14 14 14 14 14 13 13 13 14 14 13 14 14 12 10 10 9 9 8 8 10 12 12 11 10 10 9 9 11 11 11 10 10 11 11 11 11 10 9 9 9 9 10 11 11 11 11 11 11 11 12 12 13 14 14
0 0 2 1 0 0 1 1 0 2 1 3 3 2 4 6 4 5 9 8 8 4 2 4 3 3 2 2 3 5 10 15 17 17 18 18 15 15 14 12 12 12 13 13 13 14 14 13 13 12 13 13 12 13 13 12 11 10 9 8 7 7 8 11 12 12 11 10 10 9 9 9 10 9 9 9 9 11 11 10 9 8 8 8 9 10 10 9 9 9 9 9 10 11 11 12 13
0 1 1 1 2 1 2 1 1 1 1 4 2 2 4 2 2 3 6 7 5 3 2 3 2 2 1 3 2 5 14 19 18 18 19 18 15 15 13 12 12 12 13 12 13 14 14 14 13 13 13 13 12 12 12 12 12 11 10 8 7 6 6 10 10 12 12 11 10 9 9 8 9 8 8 8 8 9 10 10 10 9 8 7 7 9 9 8 8 8 8 8 8 9 9 10 11
0 1 1 2 2 2 2 1 1 2 2 4 2 2 4 2 1 3 1 2 3 4 2 3 3 2 1 1 4 5 18 21 19 20 19 17 15 14 13 12 12 12 12 12 13 13 14 14 13 13 13 13 13 13 12 12 12 12 11 9 7 5 5 9 10 11 12 12 10 9 8 8 8 7 7 8 8 8 8 9 9 9 8 7 7 8 8 7 6 6 6 6 7 7 8 8 9
1 2 2 2 3 3 3 3 2 1 3 4 2 3 5 3 1 1 1 3 2 4 3 1 2 2 2 3 5 6 20 21 20 21 18 16 16 15 14 13 13 13 13 13 13 13 14 14 13 13 13 13 14 15 14 12 13 13 11 10 7 5 5 9 10 10 12 12 11 10 8 7 7 6 7 7 7 7 8 8 9 9 9 8 7 7 7 6 5 4 5 5 5 6 6 7 7
2 3 4 4 3 3 3 2 1 0 3 4 2 3 6 3 3 2 1 4 2 3 5 2 2 2 1 3 3 12 20 21 21 22 20 18 18 16 15 15 15 15 14 14 14 14 15 14 14 14 13 13 14 17 16 14 13 12 11 9 7 6 7 9 9 10 10 12 12 10 8 7 7 7 7 7 7 8 8 9 8 7 8 7 7 7 7 5 4 3 3 3 3 4 5 6 6
2 2 4 4 3 3 2 2 2 1 3 4 3 1 5 3 3 4 4 7 5 6 7 5 5 6 4 2 7 16 20 21 22 23 22 21 19 18 17 16 17 17 16 15 14 15 15 14 15 14 14 14 15 16 17 16 14 12 11 10 9 8 9 10 10 9 9 10 11 9 8 8 7 7 7 7 8 9 10 9 8 7 6 7 7 6 6 5 4 2 1 1 1 2 3 4 4
1 1 4 3 3 4 2 1 2 1 3 5 4 1 4 4 3 4 5 6 7 10 8 7 9 10 8 6 11 18 19 20 21 22 22 21 21 19 18 18 18 19 18 16 15 16 15 14 15 15 14 15 14 15 16 17 15 12 12 11 10 9 9 10 11 10 10 9 10 9 8 9 8 8 8 8 8 9 9 9 8 7 7 7 8 7 6 6 5 3 2 1 1 1 2 2 3
1 2 3 3 2 4 3 2 3 3 0 4 3 0 3 2 3 5 5 6 8 11 11 10 12 12 12 9 13 19 20 20 21 22 23 22 22 20 19 19 18 18 17 17 15 16 16 15 15 15 15 15 14 14 15 16 15 13 12 12 11 10 10 10 12 11 10 10 10 9 9 10 10 9 9 8 7 7 7 8 8 7 7 8 9 8 8 8 6 5 4 3 3 2 2 2 2
2 1 1 3 2 3 4 3 3 3 1 2 2 2 3 1 4 7 8 10 6 4 7 10 10 9 13 13 15 18 20 21 21 23 24 24 24 22 21 19 18 18 18 18 17 17 17 16 15 15 15 15 15 14 14 15 15 13 13 14 11 11 10 10 12 12 12 11 10 10 10 11 11 11 11 10 9 7 6 6 7 8 8 9 10 9 9 9 8 7 5 4 4 4 3 3 3
3 2 1 2 3 2 3 4 2 1 0 2 2 2 2 2 5 5 11 15 3 4 2 4 4 7 14 15 16 18 19 21 23 25 26 27 27 25 23 21 20 19 19 18 18 18 18 17 17 16 16 16 15 15 13 13 14 12 14 15 12 11 11 11 13 13 13 12 11 11 11 11 10 12 13 12 11 9 8 8 8 8 8 9 10 10 10 9 9 8 6 5 5 5 4 3 3
4 2 2 2 3 3 2 2 1 1 2 2 1 2 3 5 4 1 9 16 5 3 2 1 2 9 15 15 16 17 19 23 25 26 26 26 27 26 24 22 20 19 19 19 18 18 19 19 18 17 16 16 16 15 14 13 13 12 13 16 15 12 13 13 14 14 13 12 11 11 12 12 11 11 13 13 12 11 10 10 9 8 8 9 9 9 9 9 9 8 7 6 5 4 4 3 3
6 4 2 2 2 4 3 1 1 0 2 0 1 4 4 4 2 1 11 15 7 3 2 3 5 10 13 13 15 16 17 21 22 23 24 23 24 24 23 21 20 20 20 20 19 19 19 19 19 18 17 16 16 16 15 14 14 13 12 15 18 17 16 15 15 15 14 13 12 12 12 13 12 12 13 13 13 12 11 11 11 10 9 9 9 9 9 8 8 8 8 6 5 4 3 3 3
6 5 2 3 1 2 3 3 3 1 2 2 3 6 2 1 1 5 13 11 5 5 3 5 7 10 11 12 14 15 16 19 21 21 23 22 22 23 24 22 21 22 22 21 21 20 19 19 20 19 18 17 17 16 16 15 14 14 13 14 19 21 19 16 15 15 15 15 14 13 13 13 12 12 13 13 13 13 12 11 11 11 11 10 9 9 9 8 8 8 7 6 5 3 3 4 4
3 6 4 3 2 2 2 4 4 2 2 4 5 6 1 2 2 6 6 1 3 7 5 5 7 10 11 11 12 14 15 19 21 20 20 20 21 24 25 24 23 23 23 22 22 21 19 19 20 20 19 18 17 17 16 15 14 14 15 15 17 20 22 19 16 16 17 17 16 15 14 13 13 13 13 13 12 12 11 11 11 10 10 10 10 10 9 9 8 8 8 7 5 4 3 4 4
2 4 3 3 4 4 5 6 5 4 3 5 5 5 1 4 4 8 2 4 2 7 6 5 8 9 10 11 11 12 14 16 18 18 20 22 23 24 26 26 26 25 24 23 21 21 20 20 20 20 20 19 18 18 16 15 14 14 15 15 14 17 21 21 19 19 18 18 18 17 16 14 14 14 13 13 12 12 11 10 10 9 8 8 9 9 9 9 8 8 8 8 6 5 4 4 5
2 2 2 2 3 7 9 9 7 7 5 5 4 6 6 7 9 8 2 3 3 6 6 5 8 7 7 9 9 9 12 14 16 18 21 23 22 22 24 25 25 25 25 24 21 21 22 21 20 20 20 20 20 19 16 14 14 14 14 14 14 16 19 20 21 21 20 19 19 18 17 16 16 15 15 14 13 12 10 10 10 9 8 7 8 8 8 8 7 8 7 7 6 5 5 5 5
3 2 3 1 3 5 6 6 5 7 5 6 5 7 8 10 13 7 6 5 6 6 8 7 7 6 6 7 7 8 11 14 17 20 21 22 22 22 23 23 24 24 23 24 24 24 24 22 20 20 20 21 21 20 17 15 14 14 14 14 14 17 19 20 21 22 22 21 20 20 19 18 17 17 16 15 15 13 10 10 10 9 9 8 8 8 8 8 7 7 7 6 6 5 5 6 5
4 3 1 2 3 1 4 4 7 8 4 6 6 7 8 8 9 6 6 6 8 8 10 9 7 7 6 7 8 8 10 15 18 19 20 21 21 21 22 22 23 24 23 23 25 25 25 24 22 21 21 21 20 20 19 17 16 15 14 14 15 18 20 21 22 23 23 23 22 21 20 20 19 18 18 16 16 15 10 9 10 9 10 9 9 9 8 8 8 7 7 6 6 6 6 6 5
4 3 3 3 4 3 3 5 8 7 2 6 8 6 8 10 8 4 4 4 7 9 10 9 8 7 7 7 8 8 9 13 16 16 18 20 20 20 22 23 23 25 25 24 24 25 25 25 25 23 23 23 21 20 20 18 17 16 15 15 16 18 21 23 23 22 22 23 23 23 22 21 20 19 19 18 18 17 12 10 10 10 10 11 10 10 9 8 8 8 7 7 7 8 7 7 6
3 4 2 4 6 5 2 4 6 4 2 7 11 7 6 7 6 3 5 5 7 9 9 9 8 8 8 7 7 8 8 10 13 16 19 20 22 21 21 23 25 26 26 25 24 25 26 25 26 26 24 24 23 21 20 20 18 17 17 16 17 19 22 24 24 23 21 21 23 25 23 22 21 20 20 19 20 19 15 12 11 11 12 11 11 11 10 9 9 8 8 8 7 8 9 9 8
4 3 3 5 6 4 3 3 3 4 4 8 11 11 11 10 7 3 5 6 7 8 10 9 7 7 7 7 7 8 8 9 11 17 21 23 23 23 22 22 24 25 25 26 25 25 26 25 26 27 26 25 23 21 21 21 19 18 17 16 17 19 21 23 24 26 24 23 23 24 24 23 22 21 21 20 20 20 19 16 14 13 12 12 12 12 11 11 11 10 9 9 9 10 11 11 10
8 7 6 6 6 6 7 3 2 3 5 8 10 11 14 16 13 11 7 7 7 10 9 7 7 8 7 7 8 8 9 10 13 16 20 23 22 21 22 21 22 23 24 24 25 25 25 25 25 26 27 26 23 22 22 21 19 18 18 17 18 19 20 21 23 26 27 26 23 20 21 24 24 22 22 21 21 21 20 19 17 15 13 13 13 13 13 13 12 12 12 12 13 13 13 13 12
15 12 10 7 7 7 6 3 1 1 3 7 11 12 14 16 15 16 12 7 8 11 8 6 6 7 7 7 7 8 10 12 11 12 15 18 20 20 21 21 21 22 23 23 25 27 26 25 24 24 26 27 25 24 24 22 21 20 19 19 20 22 22 21 22 25 26 28 27 22 20 23 24 24 24 23 22 21 20 20 18 16 15 14 15 15 15 14 13 13 14 15 16 14 13 14 15
14 10 9 7 7 7 4 2 2 1 5 8 10 12 14 16 15 17 14 6 7 11 10 9 8 8 7 8 8 9 11 9 5 8 13 15 18 19 19 20 20 21 22 23 25 28 28 27 26 25 24 25 27 27 26 26 26 25 23 22 24 24 23 23 23 24 25 27 28 26 23 22 21 23 25 24 23 23 22 21 19 18 18 18 19 17 16 15 13 12 13 16 17 16 13 13 13
10 7 7 6 6 6 3 2 2 3 4 8 8 9 14 16 15 14 13 9 10 12 12 12 12 10 8 8 9 9 9 7 4 8 13 14 17 19 20 21 23 24 24 25 28 29 30 29 28 27 24 25 29 31 29 28 30 29 26 26 25 23 23 25 26 25 25 26 28 28 27 25 23 22 24 25 25 24 23 22 20 20 20 20 20 18 17 17 16 14 13 14 14 16 14 11 10
8 6 6 6 6 5 5 4 3 3 3 7 7 8 13 17 16 13 13 14 13 12 13 13 13 11 9 8 9 9 8 7 7 10 12 14 16 18 20 21 24 26 26 27 29 29 28 29 29 28 26 26 27 29 30 30 31 29 25 23 22 21 23 25 25 25 25 28 30 30 30 29 27 25 25 25 25 25 24 23 21 20 21 21 19 19 19 20 20 18 15 13 11 14 17 15 14
8 7 7 7 5 6 6 3 4 4 3 6 8 8 12 15 15 14 15 14 13 12 12 13 12 11 11 10 8 8 9 9 9 10 10 12 15 17 21 23 24 25 26 27 28 27 27 28 29 30 29 28 26 27 30 29 28 26 23 21 20 20 21 23 24 24 26 28 29 31 33 31 29 28 27 26 26 26 25 24 22 21 22 22 22 22 22 22 22 21 18 16 13 12 15 16 17
9 9 9 7 7 9 6 1 1 3 3 2 7 10 10 12 14 15 13 12 12 11 11 12 11 10 11 10 9 9 11 11 10 10 10 11 14 18 22 23 22 24 26 28 29 30 31 31 32 32 30 29 28 28 29 26 24 24 24 23 23 22 21 22 24 25 26 27 28 30 32 31 29 29 27 27 28 27 26 25 24 23 23 23 23 23 22 21 21 21 20 19 17 15 13 12 14
9 11 11 9 9 9 4 2 1 5 5 2 2 8 6 5 9 11 9 7 10 10 11 12 12 11 11 11 11 11 11 11 11 12 10 10 14 17 18 21 23 26 32 34 34 35 37 36 35 33 31 31 31 31 29 24 24 25 26 26 26 27 26 26 27 27 25 26 27 27 29 30 29 28 27 27 28 27 27 28 26 25 24 23 24 24 24 24 21 19 21 21 19 17 14 11 11
7 9 11 12 9 7 6 4 3 5 4 1 2 7 6 3 8 9 7 8 9 9 10 13 13 11 11 10 11 10 11 11 10 12 11 11 13 15 17 23 28 33 38 37 36 38 39 37 35 33 34 34 34 35 31 26 26 26 26 28 28 28 29 27 27 27 24 23 24 24 27 29 28 27 26 26 27 26 26 28 29 28 25 23 23 24 25 25 21 19 21 21 19 18 16 13 11
4 7 12 12 10 9 8 7 6 3 3 2 4 4 8 9 9 9 10 12 12 11 13 14 13 12 11 11 11 12 12 11 9 11 12 12 14 16 19 25 32 37 36 32 35 41 40 37 35 33 34 35 35 36 33 28 28 28 26 28 29 28 28 26 25 25 24 23 24 24 25 28 28 27 27 26 25 25 25 26 28 29 29 26 23 23 24 24 23 21 21 20 20 21 20 16 13
1 6 11 9 8 7 5 5 4 1 3 6 5 4 7 9 3 6 10 13 14 16 18 17 14 13 13 13 13 13 13 12 11 12 11 12 14 18 21 23 29 35 34 33 38 40 39 37 35 31 33 36 37 38 36 32 29 28 27 27 28 28 27 25 23 23 23 23 24 25 24 27 29 28 27 25 24 24 24 25 26 29 31 30 28 27 25 24 25 25 22 19 20 22 22 18 14
2 7 9 7 4 4 2 2 2 1 4 10 6 7 6 10 4 6 6 8 13 15 15 16 15 14 13 13 13 14 12 11 11 11 11 12 13 17 20 22 26 33 34 36 37 36 37 37 35 34 35 37 37 38 39 36 30 27 28 28 28 27 25 24 23 24 24 24 24 26 26 26 28 29 27 26 25 24 24 24 26 28 29 30 31 31 29 27 27 28 25 20 20 21 22 21 17
9 9 9 8 4 3 2 0 1 3 7 7 6 10 6 9 4 7 7 7 11 12 10 11 14 14 12 11 12 12 12 10 9 9 10 11 12 15 18 20 25 29 30 31 33 35 36 36 35 36 36 35 33 35 37 35 31 29 30 30 29 27 25 24 25 26 25 26 25 25 27 26 27 29 28 27 27 25 24 24 25 26 27 28 29 30 30 29 29 29 26 22 22 22 23 24 21
9 8 8 7 2 2 1 1 2 5 7 1 4 8 9 10 4 5 6 5 6 9 10 10 13 14 12 11 11 10 10 9 8 7 7 8 9 12 15 18 20 22 24 28 31 34 34 34 33 32 33 32 30 32 33 33 31 31 32 31 29 28 26 25 26 27 27 27 26 25 26 26 27 29 29 28 28 25 25 26 26 26 26 27 28 27 28 29 30 29 26 24 24 23 22 23 22
5 6 9 7 3 3 3 3 3 7 5 2 1 2 8 13 8 3 5 8 9 9 8 10 12 12 12 11 9 6 4 5 6 6 6 6 6 8 11 14 15 16 22 27 29 30 32 33 31 29 31 32 29 30 32 31 31 32 32 31 30 29 28 27 27 26 26 26 25 25 26 26 27 29 29 29 29 26 27 28 28 27 26 26 27 27 27 28 30 28 23 23 24 22 22 22 22
7 8 9 7 5 4 6 5 4 5 3 2 1 2 5 12 8 5 10 12 11 6 6 9 9 9 10 8 4 2 2 5 5 5 5 5 5 6 8 10 12 14 20 25 27 29 30 31 30 29 29 30 29 30 30 30 32 32 31 29 29 29 29 28 27 25 25 24 22 23 25 26 27 29 30 31 29 28 28 29 28 28 27 26 25 26 27 27 27 25 23 24 24 22 20 21 23
8 7 6 6 6 5 6 6 5 3 1 2 3 2 7 7 2 2 8 8 7 5 5 7 8 8 7 6 5 5 5 5 4 4 6 6 6 6 7 9 13 15 18 23 27 28 29 30 31 30 28 27 29 31 30 29 31 30 29 29 28 28 28 27 26 24 23 22 21 21 22 24 24 26 29 30 29 28 29 29 27 26 27 26 25 24 25 26 26 25 24 24 24 21 18 19 22
6 3 3 6 5 3 1 1 1 1 1 3 5 4 6 4 6 9 9 7 8 9 7 7 9 7 4 5 7 6 6 6 5 5 7 8 7 7 9 11 14 16 17 20 25 28 30 31 31 30 28 26 28 30 29 27 28 27 28 28 27 27 26 25 25 23 21 21 20 19 21 22 22 22 24 26 27 28 29 29 28 26 25 24 25 25 24 24 24 23 22 21 22 22 19 19 22
5 4 5 4 2 3 2 0 2 1 4 4 5 6 6 4 9 12 13 13 12 10 9 9 9 6 4 7 8 6 7 6 6 6 7 8 7 8 13 16 16 16 17 20 23 26 29 30 29 27 25 24 25 29 28 25 25 26 26 27 27 27 25 24 23 22 21 21 20 19 20 20 20 20 20 22 25 27 28 28 27 27 25 23 24 25 24 23 24 24 23 20 21 22 20 19 22
6 7 7 5 4 1 2 3 2 3 7 4 4 9 7 3 5 5 9 14 15 13 11 8 6 5 5 7 8 7 7 6 6 8 8 8 8 8 13 17 17 16 16 18 19 22 25 26 27 26 25 25 25 27 28 25 24 25 25 26 27 27 25 24 23 22 22 22 20 20 19 19 20 22 23 24 26 27 28 28 27 26 25 24 23 24 25 25 25 25 25 23 22 22 21 20 21
3 6 9 7 3 5 6 5 4 5 6 3 4 7 7 8 8 3 7 8 10 12 12 11 9 8 7 8 7 7 7 5 6 7 7 7 8 7 9 13 15 14 14 14 15 18 21 24 26 25 25 27 26 28 30 26 22 23 24 24 25 25 25 23 23 23 23 22 23 23 22 22 25 27 28 28 28 28 28 27 26 26 25 24 24 24 26 27 26 25 25 25 24 24 25 23 23
1 4 9 4 3 6 6 4 2 4 6 5 3 3 5 8 7 7 10 9 7 7 8 10 12 10 8 6 6 5 5 4 4 5 5 5 5 4 6 9 10 10 11 11 12 14 17 20 23 24 25 25 26 28 27 22 19 21 23 23 23 24 24 23 24 24 23 23 25 27 27 27 28 28 28 28 29 29 28 27 26 25 24 24 25 25 26 26 25 24 25 26 26 27 26 25 25
5 8 11 7 3 2 2 3 2 2 5 5 4 5 6 3 4 8 13 13 12 10 8 9 9 8 5 3 4 4 3 3 4 5 5 5 4 3 4 5 6 6 7 8 10 11 13 16 19 21 22 23 24 25 23 20 19 20 21 22 22 23 23 24 25 25 24 25 27 28 29 29 28 27 27 28 28 27 26 26 26 25 24 25 26 27 27 26 26 24 25 27 28 28 27 27 28
8 8 11 11 8 5 4 7 5 2 3 3 2 5 6 2 4 7 10 11 13 11 9 10 7 3 2 3 3 3 3 4 5 5 4 4 3 4 5 5 5 5 6 6 8 10 12 15 16 18 20 21 23 23 21 19 19 20 20 21 21 23 25 26 26 26 26 27 27 27 27 27 27 27 27 26 26 26 26 25 25 26 26 25 26 27 27 27 27 26 27 28 29 28 28 29 29
Wind_Direction
355 348 338 324 345 332 248 347 259 103 294 125 96 149 133 113 14 164 155 148 157 151 154 120 146 138 116 351 57 62 28 29 17 340 84 78 139 148 150 145 144 143 140 142 146 144 146 150 144 140 135 134 123 114 113 108 107 102 96 95 96 95 92 90 93 89 88 88 85 86 86 89 93 95 94 93 91 89 88 89 91 91 90 88 87 86 85 86 87 87 89 89 89 87 85 83 80
355 353 331 322 354 343 192 312 284 134 228 132 120 10 101 149 201 181 162 157 103 117 143 145 148 128 14 3 88 128 75 38 24 41 73 124 142 149 155 147 146 144 141 144 147 145 149 151 147 142 138 136 123 120 122 115 114 107 103 104 102 102 100 97 97 92 90 91 91 91 89 91 94 96 98 96 92 89 89 92 93 92 92 90 87 85 85 88 89 89 90 90 88 85 82 81 80
356 359 330 311 14 8 137 252 267 171 241 104 111 103 131 183 191 163 141 117 72 115 135 134 149 124 313 174 176 229 91 64 84 99 111 143 147 156 157 149 147 145 143 146 150 148 149 155 152 145 141 139 130 131 129 120 118 113 113 112 109 110 107 103 99 97 96 95 95 94 94 97 97 99 100 96 91 91 93 96 94 92 92 90 88 86 86 88 89 90 91 89 86 84 82 81 81
356 2 342 274 305 100 240 255 297 265 278 77 89 118 184 206 167 130 95 89 103 133 140 149 158 73 302 226 88 356 99 97 133 123 138 157 155 155 155 150 148 146 148 149 152 150 151 158 154 149 145 142 137 135 130 123 120 116 116 114 112 106 106 110 109 106 105 102 98 95 99 100 101 103 102 99 97 98 96 94 93 92 93 92 90 88 87 87 88 91 90 88 86 84 82 81 80
356 8 18 254 267 56 1 95 168 273 49 70 60 109 198 207 148 124 104 114 123 132 144 170 168 80 298 358 0 301 107 101 144 152 153 158 153 152 154 151 149 150 150 150 152 149 154 158 154 153 148 144 141 137 133 129 125 124 124 118 111 103 101 107 114 117 111 109 109 101 101 102 104 107 105 102 101 100 98 97 98 97 96 93 90 89 89 90 89 91 91 91 89 85 82 80 78
359 7 42 71 52 49 199 175 180 164 58 17 46 72 170 178 147 127 126 125 121 18 132 185 170 133 180 98 350 7 88 102 146 167 164 157 155 155 155 152 151 151 149 150 152 149 157 158 154 157 152 148 147 142 138 135 131 125 129 126 117 114 111 104 112 122 115 109 112 109 110 111 107 108 106 104 102 100 101 101 99 97 95 92 90 89 90 92 93 92 94 95 91 85 82 80 78
356 330 41 76 106 267 227 170 179 122 79 336 28 52 111 156 147 135 145 148 156 204 176 202 172 177 152 112 169 83 58 59 136 165 167 158 156 158 157 155 152 152 150 151 151 151 163 160 157 160 156 153 152 150 143 138 135 123 128 130 122 122 124 113 108 117 117 112 113 112 108 106 105 108 110 107 104 101 101 99 97 95 94 92 91 91 91 94 97 95 96 95 88 84 81 78 76
359 344 280 246 137 3 243 160 170 96 79 298 316 28 88 146 159 154 161 163 166 166 176 186 205 218 127 118 182 105 94 129 145 158 159 157 158 161 160 158 153 153 153 152 153 155 166 162 159 163 159 157 155 154 147 142 139 127 127 132 126 126 132 122 113 115 116 118 119 113 104 107 112 114 114 109 105 102 101 99 98 97 96 96 95 94 93 95 97 96 95 92 86 83 80 76 73
9 12 233 224 169 146 193 185 156 85 146 219 234 219 83 161 177 170 167 160 144 160 167 162 193 233 135 156 130 110 150 144 155 158 158 161 161 164 162 163 158 156 156 154 155 155 164 164 161 165 162 160 159 157 153 149 142 131 128 135 135 133 140 131 122 125 121 122 119 111 115 121 117 113 112 110 106 104 103 101 100 100 100 99 98 98 97 97 97 96 94 90 86 82 78 75 71
21 16 245 176 198 193 182 196 149 143 180 214 246 209 161 170 185 185 175 159 143 160 142 131 186 224 148 159 122 111 152 151 164 162 162 163 163 167 166 168 162 159 158 156 157 156 163 168 165 164 166 165 163 160 158 155 147 140 134 139 143 138 143 139 134 138 127 121 116 112 118 121 116 112 115 115 113 109 107 106 105 103 102 101 101 101 100 99 99 97 94 90 85 81 76 72 69
338 46 303 201 203 207 182 192 162 137 144 239 257 209 173 171 178 184 182 156 145 155 134 161 193 178 168 164 122 102 135 160 167 164 164 165 166 169 169 170 166 161 160 158 159 159 162 170 170 166 168 169 167 164 163 162 156 152 144 143 144 141 146 147 150 152 135 125 121 120 123 125 121 118 120 123 122 116 111 108 107 106 104 106 106 103 103 103 101 98 94 89 83 78 74 70 68
301 73 261 218 207 215 128 245 216 331 272 225 203 145 164 171 173 184 191 177 165 162 162 191 182 152 176 169 132 123 146 164 165 165 164 166 169 170 172 172 168 163 163 161 160 161 161 168 170 170 172 170 169 168 169 169 167 165 154 149 145 143 150 151 158 162 146 137 137 133 134 132 127 126 127 129 130 123 115 112 111 110 108 109 108 106 106 105 101 97 93 87 82 77 72 69 67
1 114 243 211 246 25 121 254 340 311 255 170 63 77 163 173 184 191 183 177 172 175 177 179 150 180 202 109 123 140 162 167 162 165 165 167 171 172 173 173 172 167 166 163 162 165 164 166 166 173 177 172 170 171 175 176 174 174 165 160 154 148 158 159 161 167 156 150 153 144 141 138 133 137 135 133 135 133 129 123 117 114 114 112 108 105 104 102 100 98 93 86 81 77 71 68 67
253 139 265 166 86 227 165 245 117 260 160 57 41 100 181 184 211 194 175 186 180 171 147 145 158 207 209 143 163 166 170 167 163 165 167 170 171 174 175 176 175 173 172 167 167 169 168 168 167 174 178 174 175 175 179 182 180 181 177 176 170 158 169 172 167 170 167 160 161 152 147 145 141 143 142 140 142 145 142 134 125 119 117 116 111 108 108 106 103 99 91 85 80 74 70 68 66
221 145 295 147 156 198 196 273 58 238 71 41 28 121 194 206 337 199 189 206 170 88 91 139 221 230 203 189 161 157 165 164 165 165 169 173 173 176 177 178 179 178 179 174 173 174 173 173 171 174 175 175 179 179 183 189 188 189 188 186 183 177 182 185 178 174 177 174 167 158 152 153 149 146 150 151 150 154 150 141 137 129 119 120 119 115 118 114 107 102 93 86 81 75 69 67 65
126 153 211 184 187 200 176 172 157 224 60 51 58 123 202 174 15 218 227 292 123 115 186 167 190 297 341 131 42 123 157 159 163 165 168 170 171 176 178 182 183 182 184 182 180 178 178 178 177 178 177 178 179 180 184 191 195 195 195 193 193 198 191 188 184 179 182 183 174 165 161 159 159 156 158 161 159 161 158 153 151 145 133 132 133 126 127 122 113 107 97 91 83 76 69 66 65
200 208 211 204 192 188 172 178 177 197 55 64 117 174 213 176 128 248 355 282 154 143 208 148 151 303 24 66 28 131 152 155 160 163 165 166 170 176 182 186 186 187 190 190 187 183 183 182 183 183 182 181 181 183 182 186 197 197 197 195 195 207 196 184 182 181 183 186 183 175 168 162 161 159 158 165 167 168 170 167 162 155 148 144 144 141 140 134 125 114 100 93 82 74 66 62 60
221 204 208 215 190 172 154 151 136 9 36 40 65 193 231 215 161 174 180 214 173 157 194 158 168 224 59 40 70 146 153 157 161 165 166 169 174 178 183 188 190 193 193 194 193 188 186 186 187 185 184 182 183 188 183 183 193 197 197 194 197 208 197 182 177 179 180 185 186 178 170 165 160 157 160 167 169 170 176 180 173 165 163 157 154 154 154 150 145 133 112 93 79 67 60 58 54
230 180 212 216 167 129 91 104 113 323 355 3 3 191 230 235 157 166 211 206 183 203 201 176 200 196 174 100 132 152 160 164 167 171 172 175 180 182 185 188 193 196 196 196 195 193 189 188 189 187 186 183 183 190 188 187 189 193 197 195 198 204 198 186 178 176 175 179 183 176 169 171 165 164 169 167 165 168 174 182 179 173 174 170 168 167 162 165 173 170 158 111 66 48 50 59 58
276 201 218 198 130 119 87 137 131 76 343 336 344 73 227 230 162 167 221 221 201 219 211 181 208 203 176 146 152 163 168 172 175 179 180 183 186 188 189 189 194 197 199 199 196 196 194 191 191 190 189 184 183 187 189 190 189 190 194 195 192 193 196 191 185 181 177 176 178 177 176 179 175 174 175 166 162 167 171 178 181 178 179 178 179 179 177 184 198 210 222 256 312 347 14 27 50
157 237 213 125 119 144 129 147 116 107 349 328 335 274 252 213 174 200 213 226 222 228 220 205 215 197 167 155 164 171 173 178 183 186 188 189 191 193 196 195 196 197 198 201 200 199 196 194 191 191 191 187 187 186 188 192 190 188 191 192 188 190 193 193 192 189 185 181 178 181 184 187 184 182 180 172 168 169 171 176 179 179 181 183 184 187 191 197 206 216 230 249 269 290 312 325 0
178 216 49 106 172 168 131 135 109 108 149 314 302 287 314 77 198 214 213 229 235 244 227 221 225 183 159 162 166 173 180 185 188 192 193 194 194 195 198 199 199 199 200 202 203 201 198 196 192 191 192 191 191 192 192 195 192 190 192 189 187 193 193 194 196 193 193 191 186 187 189 191 190 189 188 184 181 177 177 178 178 176 177 184 186 190 198 204 209 217 225 230 249 266 276 294 307
227 184 73 176 197 189 133 135 124 84 339 318 322 335 334 261 244 215 221 235 237 39 313 250 239 161 152 159 164 175 185 189 193 196 196 196 197 196 197 199 200 200 200 204 204 203 200 197 194 191 192 193 194 195 195 197 196 194 195 192 191 195 193 196 199 197 199 198 197 196 194 195 193 194 194 192 190 186 185 184 184 181 179 183 185 191 199 205 210 216 217 226 243 253 260 272 290
265 211 182 196 181 215 177 141 157 53 305 326 5 309 273 249 268 179 230 240 216 69 353 339 173 145 147 159 171 182 186 191 197 198 198 199 199 198 198 199 201 201 201 204 204 204 203 200 197 194 194 194 194 196 198 199 200 198 198 197 197 199 197 198 202 202 202 201 204 202 201 202 198 198 199 198 197 195 196 193 192 192 190 191 190 194 199 204 211 214 218 226 233 242 258 267 284
240 226 198 193 186 226 210 215 250 312 265 230 217 262 262 244 287 307 248 245 213 136 80 124 148 146 157 171 178 184 188 195 199 199 201 204 204 202 202 202 203 204 204 204 204 206 205 202 200 197 197 196 194 196 200 202 204 202 201 200 202 205 204 203 205 207 206 205 208 207 207 208 205 204 202 203 202 202 204 202 202 203 202 201 200 203 204 205 211 215 219 220 220 229 250 263 281
212 207 177 188 204 222 205 233 208 162 222 160 258 271 268 211 301 258 251 251 204 158 138 143 153 160 174 179 181 186 189 196 198 198 202 203 204 205 206 206 206 208 207 205 205 207 205 204 203 201 199 198 196 197 200 204 206 205 205 204 205 208 209 208 208 209 210 211 211 211 211 212 211 209 208 207 205 205 207 206 208 211 213 214 212 215 213 211 214 217 219 218 222 229 250 269 282
183 188 184 206 252 239 198 233 201 182 234 196 251 285 309 146 215 246 248 288 165 176 175 172 178 181 183 183 184 189 192 197 197 196 198 200 204 208 209 209 211 212 209 207 208 210 208 205 206 205 203 200 199 200 202 204 206 209 209 208 208 209 210 211 212 212 214 215 216 215 214 214 214 213 213 210 206 207 208 207 208 211 216 220 220 223 221 216 215 216 216 215 221 235 260 282 294
128 175 199 227 255 247 217 238 222 213 235 190 220 274 232 147 222 246 233 72 159 194 192 191 207 202 189 187 184 190 197 196 195 196 196 199 203 206 209 210 211 212 211 210 210 213 213 208 208 208 206 205 202 204 205 206 208 210 211 211 211 211 212 213 215 215 216 218 219 219 219 217 216 216 217 215 212 212 210 209 209 209 213 216 218 220 217 214 214 217 219 219 228 242 258 280 296
117 164 241 216 258 257 227 229 219 211 218 166 179 267 239 197 223 234 145 105 164 197 206 203 220 221 199 193 186 193 198 192 193 200 201 201 204 205 207 209 209 210 212 213 211 214 217 212 210 210 209 210 208 207 208 210 210 211 214 215 215 214 214 215 217 218 220 221 221 222 222 221 221 220 221 221 220 220 216 216 215 212 212 209 207 208 207 207 210 216 220 223 232 244 256 270 288
148 160 292 260 276 268 217 207 191 201 204 148 172 264 242 210 225 211 134 151 161 192 217 208 216 223 211 199 197 201 196 194 198 203 202 202 205 205 208 209 207 209 212 213 212 213 216 213 210 210 210 211 212 211 211 213 214 214 217 217 219 219 218 219 220 222 223 223 224 225 224 225 224 223 225 226 226 226 221 223 222 216 216 211 206 206 208 211 212 214 219 226 236 245 254 261 273
163 151 243 238 262 238 141 159 176 194 187 148 185 254 253 230 231 193 151 176 175 203 219 208 208 211 216 209 205 211 201 203 208 206 202 203 206 206 208 208 206 209 210 211 212 213 215 215 212 211 211 211 213 214 213 215 217 217 219 219 221 223 223 223 223 225 226 227 227 228 227 227 227 226 228 228 229 229 224 227 227 221 218 213 212 212 211 216 218 220 224 229 238 248 253 257 266
164 183 190 185 235 219 137 156 188 202 160 170 196 241 256 251 245 173 137 191 198 223 225 209 211 204 209 213 212 219 212 211 214 212 207 206 209 207 207 207 205 208 209 210 211 212 215 217 218 215 212 212 213 214 215 217 219 220 222 223 223 225 227 227 227 226 227 229 230 230 230 229 230 230 229 230 232 230 224 226 228 226 223 216 216 216 214 220 223 226 230 231 239 250 255 259 267
172 215 197 174 217 241 192 155 196 216 144 190 211 241 259 253 250 150 134 204 216 237 238 217 213 209 210 213 216 222 218 215 216 217 212 211 214 211 208 207 206 207 208 209 209 211 212 215 220 219 215 214 215 215 216 218 219 221 223 226 226 227 229 231 231 229 227 228 230 232 232 232 233 233 233 232 233 232 226 225 227 227 224 217 218 219 218 223 227 230 232 233 239 252 263 268 271
154 200 221 210 219 247 235 155 154 192 198 213 217 234 253 257 258 215 165 193 214 237 244 234 219 217 216 211 218 225 223 219 217 216 212 212 214 213 210 209 208 208 208 209 210 211 212 213 219 223 219 215 216 215 216 219 220 220 223 227 228 229 231 233 233 233 231 229 229 231 233 234 235 235 236 235 234 235 233 233 233 230 224 220 222 225 227 230 233 236 240 244 248 257 266 270 271
165 185 206 216 217 240 250 230 126 167 211 229 222 228 247 253 255 253 221 180 211 237 239 242 234 225 222 215 222 225 225 229 226 219 214 213 213 212 210 209 209 209 210 211 212 213 213 214 217 223 222 216 215 216 217 218 218 220 223 225 228 230 231 232 233 234 234 232 229 228 230 233 235 236 237 237 236 237 237 235 233 229 227 229 232 234 236 237 239 240 243 251 256 261 265 268 269
183 191 202 210 210 224 243 237 125 158 227 237 237 240 248 251 250 254 244 184 208 244 242 242 242 229 223 220 225 224 228 236 229 219 219 216 213 211 209 209 210 211 212 213 215 214 213 214 214 219 223 218 214 215 216 216 216 219 221 223 227 229 231 232 233 234 234 233 231 227 227 232 234 236 237 238 237 237 237 236 232 227 226 233 240 243 246 245 246 248 248 250 251 253 258 265 268
194 194 206 217 221 225 224 186 113 142 252 249 243 249 255 255 251 251 250 206 206 243 245 240 237 230 224 223 227 224 228 237 219 216 226 220 216 214 210 211 211 212 213 214 216 216 214 214 213 214 219 218 213 212 213 213 214 217 219 221 224 228 230 232 233 233 233 234 234 231 230 231 231 233 236 237 237 237 236 235 233 229 226 229 233 239 248 246 246 254 256 253 247 243 252 262 262
196 194 206 216 224 237 231 182 133 131 239 258 253 260 262 260 257 252 253 245 235 239 243 245 240 234 226 225 232 231 233 239 217 226 228 218 215 213 211 211 210 211 212 212 214 215 214 213 214 215 216 215 213 212 213 214 216 217 219 221 224 227 229 230 233 235 234 236 237 235 233 233 232 233 235 237 237 237 237 235 233 232 231 230 232 239 246 241 241 249 252 252 246 241 246 250 249
195 193 206 219 209 231 249 220 194 161 227 265 271 271 268 265 263 253 247 250 250 241 238 247 249 245 237 228 236 238 243 248 232 232 225 212 210 209 210 213 213 214 213 213 215 214 212 213 215 216 215 215 214 214 214 215 218 219 220 222 223 226 229 230 233 237 239 241 242 241 238 235 234 234 235 237 238 237 238 237 234 235 236 234 234 240 244 239 238 243 242 243 244 241 242 244 246
200 192 199 214 183 201 235 203 163 171 225 284 292 283 273 269 265 254 243 238 247 247 239 244 248 250 250 240 237 239 244 247 235 230 223 208 203 205 211 214 214 213 213 214 214 211 211 212 214 215 214 214 213 214 215 216 219 220 221 223 224 228 231 231 234 239 242 244 246 245 243 239 236 235 235 237 238 238 238 238 235 236 238 237 235 236 239 239 238 240 241 240 240 242 243 246 248
205 206 205 207 191 207 227 76 112 211 210 255 290 286 273 258 252 253 245 221 224 240 240 243 241 238 247 249 244 238 238 244 241 236 224 200 200 207 210 212 211 211 214 215 212 211 213 213 214 214 213 213 211 212 215 214 216 218 220 224 227 229 232 231 231 234 238 240 242 245 246 244 241 240 239 239 239 239 238 237 236 238 237 236 237 236 236 238 237 240 245 240 236 242 248 246 244
207 213 217 217 205 208 208 68 337 264 240 165 273 279 268 239 245 255 261 230 218 225 225 237 241 229 231 238 239 234 234 239 241 243 234 204 203 209 209 210 210 213 220 221 217 217 218 218 216 214 213 213 212 212 212 210 209 212 215 217 218 221 225 225 224 226 230 233 237 242 244 243 242 243 243 243 241 239 239 238 235 235 237 236 237 239 239 237 234 240 246 241 234 239 245 244 243
213 198 201 213 207 195 184 174 210 257 270 115 169 261 272 279 263 259 269 268 252 238 227 231 235 229 222 225 233 233 233 235 234 239 238 220 209 203 206 213 214 220 226 224 221 223 223 221 219 216 216 216 216 215 213 209 208 209 213 215 215 217 220 222 223 225 228 230 233 236 238 239 240 241 242 243 244 240 241 241 235 231 234 238 239 239 239 235 231 240 247 238 230 233 235 239 246
214 162 169 190 195 189 188 192 216 255 321 266 184 242 280 276 263 248 246 259 260 250 243 237 229 227 224 222 228 230 232 231 227 231 231 223 215 207 209 215 218 224 226 223 224 227 225 223 222 219 220 221 221 221 215 209 209 209 212 217 220 221 222 224 224 225 228 229 231 232 235 237 237 238 239 239 243 242 240 242 240 233 229 232 237 235 232 230 228 235 241 234 228 232 234 235 239
214 131 148 167 173 170 172 188 217 348 341 262 199 150 268 271 234 208 225 243 252 246 242 241 233 227 225 224 226 227 231 231 227 229 228 220 215 214 216 219 223 227 226 224 227 228 226 225 223 221 223 225 225 225 218 211 211 212 212 216 220 222 224 224 223 223 226 228 229 230 232 234 234 235 237 237 239 239 238 239 242 239 232 230 234 231 228 230 228 230 237 235 229 230 233 233 232
102 124 117 104 104 101 110 206 228 335 275 260 213 157 252 278 226 187 209 231 245 247 242 239 237 229 221 220 223 224 227 231 230 229 231 225 218 222 226 226 230 231 229 228 227 227 226 225 225 224 226 227 226 226 223 216 213 213 213 215 216 218 218 218 219 221 224 224 225 226 227 230 232 233 236 238 237 237 237 236 237 240 239 236 237 234 231 232 227 228 238 240 234 231 231 233 235
122 132 112 93 78 66 69 320 39 268 261 253 193 166 217 282 246 184 202 212 226 243 247 239 235 231 225 219 219 221 221 226 230 229 234 232 225 229 233 230 232 233 231 229 227 225 224 223 223 224 226 226 224 224 223 216 213 214 216 215 214 214 212 211 215 218 219 220 220 222 223 226 229 230 232 234 235 235 235 235 233 236 241 241 241 238 237 236 229 229 239 242 239 237 235 236 238
142 143 132 119 102 87 141 124 123 237 249 210 162 168 195 245 243 171 211 225 217 234 244 243 237 233 232 226 222 220 219 223 224 226 233 229 222 225 228 230 232 231 228 228 227 225 222 221 220 220 222 222 220 220 219 214 213 217 219 217 215 214 210 208 212 214 215 216 218 218 219 224 227 228 229 230 232 233 232 233 233 233 236 238 239 238 239 240 234 232 239 239 236 237 237 236 235
168 147 149 145 137 157 196 193 191 236 236 108 85 156 203 242 254 184 217 245 239 226 233 247 244 238 237 235 229 215 215 234 230 231 236 223 217 216 219 228 230 226 226 228 227 225 222 220 217 215 218 218 215 216 215 213 214 217 219 218 216 215 213 211 212 214 214 215 217 216 216 221 225 224 225 227 230 231 230 230 231 233 232 232 235 235 236 239 235 233 238 237 234 233 233 232 233
175 159 165 162 144 167 200 193 215 245 218 138 126 119 242 261 266 212 219 240 249 236 232 251 255 253 255 259 267 284 247 238 229 234 243 231 225 219 218 227 226 223 225 226 226 225 222 221 217 215 217 216 214 213 213 214 216 218 219 218 216 216 216 213 212 214 214 213 215 215 216 220 222 221 222 226 230 231 230 230 232 234 232 231 234 232 232 235 233 234 239 236 232 229 228 230 233
178 168 174 179 168 185 202 190 207 221 136 133 150 169 236 247 335 263 241 258 278 272 251 257 259 253 262 282 285 274 260 247 227 228 243 242 235 230 232 233 230 228 224 221 223 222 220 220 218 216 215 213 213 212 212 214 218 219 219 219 218 217 217 216 215 215 214 214 214 214 217 219 220 221 223 227 231 230 229 231 232 232 232 232 232 230 231 233 231 236 240 234 229 225 224 230 229
189 160 177 204 187 152 136 213 226 119 68 180 183 231 246 251 322 296 271 271 263 254 245 247 251 235 229 268 264 252 251 247 234 229 241 242 229 225 231 234 236 232 224 220 221 219 218 219 219 218 216 213 213 212 211 214 218 219 220 220 219 217 217 217 215 215 216 216 215 214 217 219 220 222 224 227 229 228 228 232 231 231 231 230 230 230 232 231 230 235 237 233 231 223 219 223 219
169 176 191 196 80 87 125 179 57 70 255 219 189 246 268 296 287 261 245 250 245 238 232 231 244 234 211 247 251 243 241 233 228 230 238 240 227 222 228 230 233 231 224 222 221 220 219 219 219 218 216 214 214 212 211 213 218 220 221 222 221 220 218 218 216 215 217 217 217 216 218 219 219 220 221 222 223 225 229 232 230 229 228 227 227 229 230 227 228 233 232 232 231 219 211 212 209
152 184 173 121 50 29 210 211 150 184 239 237 193 238 257 263 267 231 212 237 242 240 239 231 236 231 226 243 245 244 244 231 227 230 234 238 229 224 227 228 228 226 224 223 223 222 220 219 219 218 217 216 215 214 212 212 215 218 220 221 222 221 220 221 220 217 218 218 217 216 216 216 217 218 220 223 225 228 230 232 230 227 225 223 222 223 224 223 224 228 226 227 227 214 202 200 202
173 178 155 138 177 199 196 203 187 191 226 257 212 235 252 227 233 209 166 207 236 240 243 246 245 235 230 241 243 247 249 242 238 234 233 237 231 224 226 229 228 222 219 218 218 220 217 217 218 216 218 219 217 217 215 213 214 216 218 220 221 221 220 220 220 218 218 217 215 215 214 216 221 225 228 230 230 230 229 230 228 224 221 220 217 216 219 219 222 225 219 216 216 206 197 193 193
343 169 165 175 235 200 190 185 181 189 209 245 230 221 242 215 209 208 194 203 224 221 228 242 248 243 232 232 236 244 248 250 260 260 258 258 251 239 231 233 233 222 215 210 207 210 210 213 215 215 217 219 218 219 216 212 214 215 217 219 219 219 219 218 218 217 216 215 217 219 220 222 227 231 231 231 231 229 228 227 225 221 217 217 216 214 215 216 219 220 215 210 204 197 192 188 185
164 180 181 188 191 182 211 192 201 216 207 228 235 241 247 201 160 198 209 221 230 227 231 236 242 251 250 244 246 254 270 282 285 289 290 284 272 238 226 233 236 226 216 207 202 203 203 206 210 213 215 217 218 219 216 213 213 213 214 215 215 216 216 216 216 214 214 217 220 222 224 227 230 231 230 229 229 229 228 225 220 216 213 212 214 213 212 213 213 211 208 201 192 189 188 183 180
179 191 189 189 179 157 187 200 196 213 218 211 228 268 266 167 155 202 208 220 229 232 245 248 251 273 301 281 262 263 277 276 277 277 279 280 253 204 202 209 215 220 216 209 206 203 202 203 205 208 211 213 216 215 214 213 213 212 213 213 214 215 216 217 216 215 217 220 222 223 226 229 229 229 228 226 227 227 225 222 217 214 211 208 210 211 209 208 206 202 196 189 185 185 184 181 179